{"data":{"norad_id":58118,"intl_designator":"2023-162A","name":"STARLINK-30795","alt_names":[],"object_type":"PAYLOAD","status":"ACTIVE","operator":null,"country":"US","launch_date":"2023-10-22","launch_site_code":"AFETR","launch_vehicle":null,"mission":null,"orbit_class":"UNKNOWN","rcs_meters":null,"size_class":null,"mass_kg":null,"dimensions":null,"purposes":["comms"],"wikipedia_slug":null,"has_3d_model":false,"image_url":null,"decayed_at":null,"tle_current":{"epoch":"2026-09-20T21:07:56.029440Z","epoch_age_seconds":107633,"freshness":"FRESH","line1":"1 58118U 23162A   26263.88050960 -.00002157  00000+0 -68916-4 0  9992","line2":"2 58118  43.0027 109.7667 0001131 268.4959  91.5763 15.27564975162164","mean_motion":15.27564975,"eccentricity":0.0001131,"inclination_deg":43.0027,"raan_deg":109.7667,"arg_perigee_deg":268.4959,"mean_anomaly_deg":91.5763,"bstar":-6.8916e-5,"rev_number":16216,"period_min":94.267675913426,"perigee_km":482.31808142773,"apogee_km":483.87009189954,"semimajor_km":6861.2310866636,"source":"CELESTRAK","updated_at":"2026-09-21T09:00:33.790486Z"}}}